Location: Newark
(49.1000°N, 0.4667°W)
Time: 09:16:28
(UTC+00:00)

FO-29 - Visible Passes

Search period start: 28 October 2021 00:00
Search period end: 07 November 2021 00:00
Orbit: 800 x 1321 km, 98.6° (Epoch: 27 October)

Date Brightness Start Highest point End Pass type
(mag) Time Alt. Az. Time Alt. Az. Time Alt. Az.
28 Oct 10.7 18:45:20 26° ENE 18:45:32 26° ENE 18:50:46 10° N visible
28 Oct 10.3 20:31:49 54° NNW 20:31:49 54° NNW 20:36:44 10° NNW visible
28 Oct 12.1 22:18:19 15° WNW 22:18:19 15° WNW 22:20:17 10° NW visible
29 Oct 11.4 17:49:45 11° ENE 17:51:21 12° NE 17:53:50 10° NNE visible
29 Oct 10.2 19:36:15 46° NE 19:36:15 46° NE 19:41:24 10° N visible
29 Oct 11.3 21:22:44 30° NW 21:22:44 30° NW 21:26:29 10° NNW visible
30 Oct 10.8 18:40:39 24° NE 18:40:39 24° NE 18:45:33 10° N visible
30 Oct 10.4 20:27:09 49° NNW 20:27:09 49° NNW 20:31:38 10° NNW visible
30 Oct 12.1 22:13:39 15° WNW 22:13:39 15° WNW 22:15:18 10° NW visible
31 Oct 11.4 17:45:04 11° ENE 17:46:25 11° NE 17:48:13 10° NNE visible
31 Oct 10.3 19:31:34 41° NE 19:31:34 41° NE 19:36:15 10° N visible
31 Oct 11.3 21:18:04 29° NW 21:18:04 29° NW 21:21:25 10° NNW visible
01 Nov 10.9 18:35:59 22° NE 18:35:59 22° NE 18:40:19 10° N visible
01 Nov 10.5 20:22:28 44° NNW 20:22:28 44° NNW 20:26:30 10° NNW visible
01 Nov 12.1 22:08:58 14° NW 22:08:58 14° NW 22:10:19 10° NW visible
02 Nov 11.4 17:40:47 10° NE 17:41:27 10° NE 17:42:07 10° NE visible
02 Nov 10.4 19:26:53 37° NNE 19:26:53 37° NNE 19:31:04 10° N visible
02 Nov 11.4 21:13:22 27° NW 21:13:22 27° NW 21:16:19 10° NNW visible
03 Nov 10.9 18:31:17 20° NE 18:31:17 20° NE 18:35:03 10° N visible
03 Nov 10.6 20:17:46 39° NNW 20:17:46 39° NNW 20:21:22 10° NNW visible
03 Nov 12.2 22:04:16 13° NW 22:04:16 13° NW 22:05:18 10° NW visible
04 Nov 10.5 19:22:10 32° NNE 19:22:10 32° NNE 19:25:53 10° N visible
04 Nov 11.4 21:08:40 25° NW 21:08:40 25° NW 21:11:13 10° NNW visible
05 Nov 11.0 18:26:33 19° NE 18:26:33 19° NE 18:29:45 10° NNE visible
05 Nov 10.7 20:13:03 34° N 20:13:03 34° N 20:16:13 10° NNW visible
05 Nov 12.2 21:59:32 13° NW 21:59:32 13° NW 22:00:17 10° NW visible
06 Nov 10.7 19:17:26 29° NNE 19:17:26 29° NNE 19:20:41 10° N visible
06 Nov 11.5 21:03:56 23° NW 21:03:56 23° NW 21:06:06 10° NNW visible
